User: anonymous   Login
Location: Bovenkerk
(52.2915°N, 4.8336°E)
Time: 21:20:59
(UTC+00:00)
Language:

Cosmos 1825 - Orbit

View from above orbital plane
View from above orbital plane
View from above satellite
View from above satellite

Ground track
Ground track

The orbit data is extracted from the following two-line orbital elements,

1 17566U 87024A   20184.81332157 +.00000314 +00000-0 +13033-4 0  9993
2 17566 082.5053 266.7854 0002398 319.6749 040.4307 15.20065765822354
Epoch (UTC): 02 July 2020 19:31:10
Eccentricity: 0.0002398
inclination: 82.5053°
perigee height: 504 km
apogee height: 507 km
right ascension of ascending node: 266.7854°
argument of perigee: 319.6749°
revolutions per day: 15.20065765
mean anomaly at epoch: 40.4307°
orbit number at epoch: 82235

The dashed part of the orbit path shows where the satellite is in the earth's shadow,  

DLR